Location: Flotzheim
(48.8375°N, 10.8136°E)
Time: 17:33:24
(UTC+00:00)

Cosmos-2242 - Pass Details

Date: 23 January 2021
Orbit: 591 x 616 km, 82.5° (Epoch: 01 March)

Event Time Altitude Azimuth Distance (km) Brightness Sun altitude
Rises 17:37:28 0° 358° (N) 2,846 6.4 -15.8°
Reaches altitude 10° 17:39:52 10° 8° (N) 1,942 5.4 -16.2°
Enters shadow 17:43:19 31° 61° (ENE) 1,062 3.7 -16.7°
